Cecil Field, FL

11:55 AM EDT on September 23, 2017 (GMT -0400)
Cecil

Weather History for KVQQ - September, 2012

Change the Weather History Date:

Saturday, September 1, 2012

  Actual Average (KNIP) Record (KNIP)
Temperature  
Mean Temperature 80 °F -  
Max Temperature 89 °F 86 °F 97 °F (2014)
Min Temperature 71 °F 73 °F 71 °F (1999)
Cooling Degree Days 15    
Growing Degree Days 30 (Base 50)    
Moisture  
Dew Point 73 °F    
Average Humidity 90    
Maximum Humidity 100    
Minimum Humidity 59    
Precipitation  
Precipitation 0.00 in - - ()
Sea Level Pressure  
Sea Level Pressure 30.14 in    
Wind  
Wind Speed 1 mph (NE)    
Max Wind Speed 7 mph    
Max Gust Speed -    
Visibility 6 miles    
Events Fog    
Averages and records for this station are not official NWS values.
T = Trace of Precipitation, MM = Missing Value Source: NWS Daily Summary

Daily Weather History Graph

Daily Weather History Graph

Search for Another Location

Airport or City:

Trip Planner

Search our weather history database for the weather conditions in past years. The results will help you decide how hot, cold, wet, or windy it might be!

Date:

Astronomy

Sep. 01, 2012 Rise Set
Actual Time 7:04 AM EDT 7:49 PM EDT
Civil Twilight 6:40 AM EDT 8:13 PM EDT
Nautical Twilight 6:11 AM EDT 8:42 PM EDT
Astronomical Twilight 5:42 AM EDT 9:11 PM EDT
Moon 8:17 PM EDT (9/1) 8:01 AM EDT (9/1)
Length of Visible Light 13h 33m
Length of Day
12h 44m
Full, 99% of the Moon is Illuminated
Sep 1
Full
Sep 8
Last Quarter
Sep 15
New
Sep 22
First Quarter
Sep 29
Full

Hourly Weather History & Observations

Time (EDT) Temp. Heat Index Dew Point Humidity Pressure Visibility Wind Dir Wind Speed Gust Speed Precip Events Conditions
12:35 AM 73.4 °F - 73.4 °F 100% 30.17 in 7.0 mi Calm Calm - N/A   Clear
12:55 AM 73.4 °F - 73.4 °F 100% 30.17 in 7.0 mi Calm Calm - N/A   Clear
1:35 AM 73.4 °F - 73.4 °F 100% 30.16 in 7.0 mi Calm Calm - N/A   Clear
2:15 AM 71.6 °F - 71.6 °F 100% 30.15 in 5.0 mi Calm Calm - N/A   Clear
2:35 AM 71.6 °F - 71.6 °F 100% 30.15 in 7.0 mi Calm Calm - N/A   Clear
2:55 AM 71.6 °F - 71.6 °F 100% 30.14 in 7.0 mi Calm Calm - N/A   Clear
3:15 AM 71.6 °F - 71.6 °F 100% 30.14 in 7.0 mi Calm Calm - N/A   Mostly Cloudy
3:35 AM 71.6 °F - 71.6 °F 100% 30.14 in 7.0 mi Calm Calm - N/A   Overcast
3:55 AM 71.6 °F - 71.6 °F 100% 30.13 in 5.0 mi Calm Calm - N/A   Overcast
4:15 AM 71.6 °F - 71.6 °F 100% 30.13 in 8.0 mi Calm Calm - N/A   Overcast
4:35 AM 71.6 °F - 71.6 °F 100% 30.13 in 5.0 mi Calm Calm - N/A   Overcast
4:55 AM 71.6 °F - 71.6 °F 100% 30.12 in 5.0 mi Calm Calm - N/A   Overcast
5:15 AM 71.6 °F - 71.6 °F 100% 30.13 in 0.5 mi Calm Calm - N/A Fog Fog
5:35 AM 71.6 °F - 71.6 °F 100% 30.13 in 0.2 mi Calm Calm - N/A Fog Fog
6:15 AM 71.6 °F - 71.6 °F 100% 30.14 in 0.2 mi Calm Calm - N/A Fog Fog
6:50 AM 71.6 °F - 71.6 °F 100% 30.15 in 1.0 mi Calm Calm - N/A   Overcast
7:50 AM 73.4 °F - 73.4 °F 100% 30.17 in 0.5 mi Calm Calm - N/A Fog Fog
8:50 AM 75.2 °F - 75.2 °F 100% 30.18 in 0.5 mi Calm Calm - N/A Fog Fog
9:50 AM 78.8 °F - 78.8 °F 100% 30.19 in 7.0 mi Calm Calm - N/A   Mostly Cloudy
10:50 AM 84.2 °F 94.1 °F 77.0 °F 79% 30.20 in 7.0 mi Calm Calm - N/A   Mostly Cloudy
11:50 AM 86.0 °F 95.1 °F 75.2 °F 70% 30.19 in 8.0 mi Calm Calm - N/A   Mostly Cloudy
12:50 PM 86.0 °F 95.1 °F 75.2 °F 70% 30.18 in 8.0 mi East 3.5 mph - N/A   Mostly Cloudy
1:50 PM 89.6 °F 98.2 °F 73.4 °F 59% 30.16 in 7.0 mi NE 6.9 mph - N/A   Scattered Clouds
2:50 PM 89.6 °F 98.2 °F 73.4 °F 59% 30.13 in 7.0 mi NNE 5.8 mph - N/A   Scattered Clouds
3:50 PM 89.6 °F 98.2 °F 73.4 °F 59% 30.11 in 7.0 mi NE 5.8 mph - N/A   Scattered Clouds
4:50 PM 89.6 °F 99.8 °F 75.2 °F 62% 30.09 in 7.0 mi NE 6.9 mph - N/A   Partly Cloudy
5:50 PM 87.8 °F 95.6 °F 73.4 °F 62% 30.07 in 7.0 mi NE 5.8 mph - N/A   Partly Cloudy
6:50 PM 86.0 °F 93.4 °F 73.4 °F 66% 30.08 in 7.0 mi ENE 5.8 mph - N/A   Clear
7:50 PM 82.4 °F 88.2 °F 73.4 °F 74% 30.08 in 10.0 mi Calm Calm - N/A   Clear
8:55 PM 75.2 °F - 73.4 °F 94% 30.10 in 10.0 mi Calm Calm - N/A   Clear
9:15 PM 75.2 °F - 73.4 °F 94% 30.11 in 10.0 mi Calm Calm - N/A   Clear
9:35 PM 75.2 °F - 73.4 °F 94% 30.11 in 10.0 mi Calm Calm - N/A   Clear
10:15 PM 73.4 °F - 73.4 °F 100% 30.12 in 10.0 mi Calm Calm - N/A   Clear
10:35 PM 73.4 °F - 73.4 °F 100% 30.11 in 10.0 mi Calm Calm - N/A   Clear
11:15 PM 73.4 °F - 73.4 °F 100% 30.11 in 10.0 mi Calm Calm - N/A   Clear
11:35 PM 73.4 °F - 73.4 °F 100% 30.11 in 10.0 mi Calm Calm - N/A   Clear